Regional Weather Roundup
Issued by NWS

Home | Current Version | Previous Version | Text Only | Print | Product List | Glossary On
Versions: 1 2 3 4 5 6 7 8 9 10 11 12 13 14 15 16 17 18 19 20 21 22 23 24 25 26 27 28 29 30 31 32 33 34 35 36 37 38 39 40 41 42 43 44 45 46 47 48 49 50
098
ASUS44 KFWD 210601
RWRTX
NORTH TEXAS HOURLY WEATHER ROUNDUP
NATIONAL WEATHER SERVICE FORT WORTH TX
1200 AM CST SAT JAN 21 2017

NOTE: "FAIR" INDICATES FEW OR NO CLOUDS BELOW 12,000 FEET WITH NO
SIGNIFICANT WEATHER AND/OR OBSTRUCTIONS TO VISIBILITY.

TXZ118-119-210700-
DALLAS/FORT WORTH METROPLEX

CITY           SKY/WX    TMP DP  RH WIND       PRES   REMARKS
DFW AIRPORT    PTCLDY    57  48  72 S10       29.63S
6HR MIN TEMP:  54; 6HR MAX TEMP:  67;

DALLAS LOVE    CLEAR     59  45  59 W3        29.65S
6HR MIN TEMP:  59; 6HR MAX TEMP:  72;

FTW MEACHAM    CLEAR     56  43  61 S6        29.64F
6HR MIN TEMP:  55; 6HR MAX TEMP:  69;

DAL-EXECUTIVE  CLEAR     58  49  72 VRB5      29.64F
6HR MIN TEMP:  58; 6HR MAX TEMP:  70;

FTW-ALLIANCE   PTCLDY    56  42  59 S8        29.64S
6HR MIN TEMP:  54; 6HR MAX TEMP:  67;

FTW-NAS-JRB    CLEAR     53  43  68 S9        29.65F
6HR MIN TEMP:  51; 6HR MAX TEMP:  69;

FTW-SPINKS     CLEAR     56  45  67 S6        29.67S
6HR MIN TEMP:  52; 6HR MAX TEMP:  68;

ARLINGTON      CLEAR     55  45  68 S6        29.65F
6HR MIN TEMP:  54; 6HR MAX TEMP:  70;

GRAND PRAIRIE  CLEAR     56  45  68 S6        29.66S
ADDISON        CLEAR     59  46  61 CALM      29.66S
6HR MIN TEMP:  59; 6HR MAX TEMP:  71;

MESQUITE       CLEAR     51  45  81 S6        29.65F
6HR MIN TEMP:  49; 6HR MAX TEMP:  63;

LANCASTER      CLEAR     55  46  72 CALM      29.66F
6HR MIN TEMP:  55; 6HR MAX TEMP:  66;

$$

TXZ091>094-102>105-117-120-121-131>134-210700-
NORTH CENTRAL TEXAS

CITY           SKY/WX    TMP DP  RH WIND       PRES   REMARKS
SHRMAN/DENISON NOT AVBL
GAINESVILLE    CLEAR     51  35  53 SW5       29.65S
6HR MIN TEMP:  51; 6HR MAX TEMP:  67;

BOWIE          CLEAR     52  36  54 SW6       29.63S
6HR MIN TEMP:  52; 6HR MAX TEMP:  67;

BRIDGEPORT     CLEAR     55  37  51 SW6       29.66S
6HR MIN TEMP:  53; 6HR MAX TEMP:  68;

DECATUR        CLEAR     57  33  40 S9        29.64S
6HR MIN TEMP:  56; 6HR MAX TEMP:  67;

DENTON         CLEAR     52  39  61 S6        29.63F
6HR MIN TEMP:  48; 6HR MAX TEMP:  66;

MCKINNEY       CLEAR     57  46  66 S8        29.64S
6HR MIN TEMP:  54; 6HR MAX TEMP:  64;

BONHAM         CLEAR     55  45  67 S10       29.64F
ROCKWALL       CLEAR     53  46  76 S7        29.66S
6HR MIN TEMP:  53; 6HR MAX TEMP:  65;

TERRELL        CLEAR     52  45  77 CALM      29.65F
6HR MIN TEMP:  52; 6HR MAX TEMP:  63;

WAXAHACHIE     CLEAR     54  49  83 S5        29.67F
6HR MIN TEMP:  54; 6HR MAX TEMP:  64;

CLEBURNE       CLEAR     55  46  71 S6        29.67F
GRANBURY       CLEAR     48  40  73 CALM      29.66F
6HR MIN TEMP:  48; 6HR MAX TEMP:  70;

$$

TXZ083>090-098>101-113>116-127>130-139>142-154-155-210700-
WESTERN NORTH TEXAS

CITY           SKY/WX    TMP DP  RH WIND       PRES   REMARKS
WICHITA FALLS  CLEAR     50  35  56 SW10      29.59F
6HR MIN TEMP:  50; 6HR MAX TEMP:  63;

WF-KICKAPOO    PTCLDY    54  35  48 SW8       29.62S
6HR MIN TEMP:  54; 6HR MAX TEMP:  66;

VERNON         PTCLDY    46  34  62 W7        29.61S
6HR MIN TEMP:  33; 6HR MAX TEMP:  71;

ABILENE        CLEAR     46  36  68 S9        29.66S
6HR MIN TEMP:  46; 6HR MAX TEMP:  62;

ABILENE-DYESS  CLEAR     42  34  72 CALM      29.64F
6HR MIN TEMP:  42; 6HR MAX TEMP:  59;

CISCO          PTCLDY    54  32  43 S7        29.66F
RANGER         CLEAR     52  34  50 S7        29.66F
MINERAL WELLS  CLEAR     47  35  63 SE6       29.64S
6HR MIN TEMP:  44; 6HR MAX TEMP:  64;

STEPHENVILLE   CLEAR     48  36  64 CALM      29.68F
6HR MIN TEMP:  46; 6HR MAX TEMP:  67;

COMANCHE       CLEAR     54  42  65 SW9       29.66F
6HR MIN TEMP:  51; 6HR MAX TEMP:  67;

BROWNWOOD      CLEAR     41  37  87 CALM      29.66F
$$

TXZ143>147-156>162-174-175-210700-
CENTRAL TEXAS

CITY           SKY/WX    TMP DP  RH WIND       PRES   REMARKS
WACO           CLEAR     54  50  86 SW8       29.66F
6HR MIN TEMP:  52; 6HR MAX TEMP:  65;

WACO-MCGREGOR  CLEAR     54  49  83 SW7       29.66F
6HR MIN TEMP:  53; 6HR MAX TEMP:  68;

HILLSBORO      CLEAR     53  51  91 CALM      29.66F
6HR MIN TEMP:  53; 6HR MAX TEMP:  63;

MEXIA          CLEAR     54  51  90 S5        29.66F
6HR MIN TEMP:  54; 6HR MAX TEMP:  65;

HEARNE         CLEAR     52  51  96 CALM      29.68S
6HR MIN TEMP:  52; 6HR MAX TEMP:  67;

CAMERON        CLEAR     58  53  81 SW6       29.67F
6HR MIN TEMP:  57; 6HR MAX TEMP:  69;

KILLEEN        NOT AVBL
KILLEEN-SKYLRK CLEAR     54  48  80 S6        29.66F
6HR MIN TEMP:  54; 6HR MAX TEMP:  69;

HAMILTON       CLEAR     53  42  66 S7        29.67F
6HR MIN TEMP:  50; 6HR MAX TEMP:  70;

LAMPASAS       CLEAR     55  50  82 SW3       29.65F
6HR MIN TEMP:  54; 6HR MAX TEMP:  68;

$$

TXZ095>097-106>112-122>126-135>138-148>153-164>167-210700-
EAST TEXAS

CITY           SKY/WX    TMP DP  RH WIND       PRES   REMARKS
PARIS          CLEAR     52  43  71 SW3       29.65F
6HR MIN TEMP:  52; 6HR MAX TEMP:  63;

SULPHUR SPRNGS CLEAR     57  51  80 S6        29.67F
6HR MIN TEMP:  56; 6HR MAX TEMP:  67;

GILMER         CLOUDY    58  52  81 S3        29.65F
6HR MIN TEMP:  55; 6HR MAX TEMP:  66;

MINEOLA        CLEAR     52  50  93 CALM      29.66S
TYLER          CLEAR     56  51  84 S7        29.66F
6HR MIN TEMP:  56; 6HR MAX TEMP:  66;

LONGVIEW       CLOUDY    56  54  93 S7        29.64F
6HR MIN TEMP:  55; 6HR MAX TEMP:  66;

MARSHALL       CLOUDY    55  51  86 CALM      29.68F
6HR MIN TEMP:  55; 6HR MAX TEMP:  66;

ATHENS         CLEAR     50  50 100 CALM      29.65F
PALESTINE      CLOUDY    58  54  86 CALM      29.68F
JACKSONVILLE   CLOUDY    61  52  71 CALM      29.68F
CENTER         LGT RAIN  60  59  96 CALM      29.70R
6HR MIN TEMP:  60; 6HR MAX TEMP:  69; 6HR PCP:  0.01;

NACOGDOCHES    MOCLDY    57  54  88 CALM      29.65F
6HR MIN TEMP:  55; 6HR MAX TEMP:  63;

LUFKIN         LGT RAIN  60  57  89 NW8       29.66F
6HR MIN TEMP:  58; 6HR MAX TEMP:  66; 6HR PCP: TRACE;

$$

SUPPLEMENTAL OBSERVATIONS (CENTRAL)

CITY           SKY/WX    TMP DP  RH WIND       PRES   REMARKS
$$

SUPPLEMENTAL OBSERVATIONS (WEST)

CITY           SKY/WX    TMP DP  RH WIND       PRES   REMARKS
$$

SUPPLEMENTAL OBSERVATIONS (EAST)

CITY           SKY/WX    TMP DP  RH WIND       PRES   REMARKS
$$

SUPPLEMENTAL OBSERVATIONS ARE A COLLECTION OF AUTOMATED INSTRUMENTS
THAT ARE MAINTAINED BY A VARIETY OF FEDERAL AND STATE AGENCIES.
CERTAIN ELEMENTS...SUCH AS HUMIDITY VALUES AND SUSTAINED WIND
SPEEDS...MAY BE APPROXIMATED.





USA.gov is the U.S. government's official web portal to all federal, state and local government web resources and services.